• In Kazakhstan
  • List of Countries
  • For 7 days
  • Water Temperature
  • Weather Map
  • News
  • Weather Widgets
  • user-avatar
    Login

    Hourly Weather Porto Velho

    Today, 29 May, Friday

    Time Temperature Precipitation Wind Pressure Humidity
    00:00 +23°C° 0 mm 0 mps 752 mmHg 84%
    01:00 +22°C° 0 mm 0 mps 751 mmHg 86%
    02:00 +22°C° 0 mm 0 mps 751 mmHg 85%
    03:00 +22°C° 0 mm 0 mps 752 mmHg 87%
    04:00 +22°C° 0 mm 0 mps 752 mmHg 89%
    05:00 +21°C° 0 mm 0 mps 752 mmHg 91%
    06:00 +22°C° 0 mm 0 mps 752 mmHg 87%
    07:00 +23°C° 0 mm 0 mps 752 mmHg 83%
    08:00 +25°C° 0 mm 0 mps 753 mmHg 78%
    09:00 +28°C° 0 mm 0 mps 753 mmHg 69%
    10:00 +30°C° 0 mm 0 mps 753 mmHg 61%
    11:00 +33°C° 0 mm 0 mps 754 mmHg 52%
    12:00 +33°C° 0 mm 0 mps 753 mmHg 50%
    13:00 +33°C° 0 mm 0 mps 752 mmHg 49%
    14:00 +33°C° 0 mm 0 mps 750 mmHg 48%
    15:00 +32°C° 0 mm 0 mps 750 mmHg 52%
    16:00 +31°C° 0 mm 0 mps 750 mmHg 57%
    17:00 +30°C° 0 mm 0 mps 750 mmHg 61%
    18:00 +29°C° 0 mm 0 mps 750 mmHg 65%
    19:00 +27°C° 0 mm 0 mps 750 mmHg 69%
    20:00 +26°C° 0 mm 0 mps 751 mmHg 73%
    21:00 +25°C° 0 mm 0 mps 751 mmHg 76%
    22:00 +24°C° 0 mm 0 mps 751 mmHg 79%
    23:00 +24°C° 0 mm 0 mps 752 mmHg 82%

    Tomorrow, 30 May, Saturday

    Time Temperature Precipitation Wind Pressure Humidity
    00:00 +23°C° 0 mm 0 mps 752 mmHg 85%
    01:00 +23°C° 0 mm 0 mps 751 mmHg 87%
    02:00 +22°C° 0 mm 0 mps 751 mmHg 90%
    03:00 +22°C° 0 mm 0 mps 751 mmHg 91%
    04:00 +22°C° 0 mm 0 mps 751 mmHg 92%
    05:00 +22°C° 0 mm 0 mps 751 mmHg 93%
    06:00 +23°C° 0 mm 0 mps 752 mmHg 89%
    07:00 +24°C° 0 mm 0 mps 752 mmHg 84%
    08:00 +25°C° 0 mm 0 mps 753 mmHg 80%
    09:00 +30°C° 0 mm 1 mps 753 mmHg 71%
    10:00 +32°C° 0 mm 1 mps 753 mmHg 62%
    11:00 +34°C° 0 mm 1 mps 753 mmHg 52%
    12:00 +35°C° 0 mm 1 mps 752 mmHg 50%
    13:00 +36°C° 0 mm 1 mps 751 mmHg 47%
    14:00 +35°C° 0 mm 0 mps 750 mmHg 44%
    15:00 +33°C° 0 mm 0 mps 750 mmHg 51%
    16:00 +31°C° 0 mm 0 mps 749 mmHg 58%
    17:00 +30°C° 0 mm 0 mps 749 mmHg 66%
    18:00 +28°C° 0.4 mm 0 mps 749 mmHg 75%
    19:00 +28°C° 0.4 mm 1 mps 750 mmHg 84%
    20:00 +26°C° 0.4 mm 1 mps 750 mmHg 93%
    21:00 +26°C° 0 mm 1 mps 751 mmHg 93%
    22:00 +24°C° 0 mm 0 mps 751 mmHg 94%
    23:00 +23°C° 0 mm 0 mps 751 mmHg 94%

    Day after tomorrow, 31 May, Sunday

    Time Temperature Precipitation Wind Pressure Humidity
    00:00 +23°C° 0 mm 0 mps 751 mmHg 94%
    01:00 +23°C° 0 mm 0 mps 751 mmHg 94%
    02:00 +23°C° 0 mm 0 mps 751 mmHg 95%
    03:00 +23°C° 0 mm 0 mps 751 mmHg 96%
    04:00 +22°C° 0 mm 0 mps 751 mmHg 96%
    05:00 +22°C° 0 mm 0 mps 751 mmHg 97%
    06:00 +23°C° 0 mm 0 mps 752 mmHg 94%
    07:00 +24°C° 0 mm 0 mps 752 mmHg 92%
    08:00 +25°C° 0 mm 0 mps 753 mmHg 89%
    09:00 +27°C° 0.3 mm 0 mps 753 mmHg 80%
    10:00 +29°C° 0.3 mm 0 mps 753 mmHg 71%
    11:00 +32°C° 0.3 mm 0 mps 753 mmHg 62%
    12:00 +31°C° 1 mm 0 mps 752 mmHg 64%
    13:00 +33°C° 1 mm 1 mps 751 mmHg 66%
    14:00 +33°C° 1 mm 1 mps 750 mmHg 68%
    15:00 +32°C° 0.6 mm 1 mps 750 mmHg 74%
    16:00 +31°C° 0.6 mm 1 mps 749 mmHg 81%
    17:00 +29°C° 0.6 mm 1 mps 749 mmHg 87%
    18:00 +28°C° 0.4 mm 1 mps 750 mmHg 90%
    19:00 +27°C° 0.4 mm 1 mps 750 mmHg 92%
    20:00 +24°C° 0.4 mm 0 mps 751 mmHg 94%
    21:00 +24°C° 0.1 mm 0 mps 751 mmHg 95%
    22:00 +24°C° 0.1 mm 0 mps 752 mmHg 95%
    23:00 +23°C° 0.1 mm 0 mps 752 mmHg 95%

    1 June, Monday

    Time Temperature Precipitation Wind Pressure Humidity
    00:00 +23°C° 0.3 mm 0 mps 752 mmHg 96%
    01:00 +23°C° 0.3 mm 0 mps 751 mmHg 97%
    02:00 +23°C° 0.3 mm 0 mps 751 mmHg 98%
    03:00 +23°C° 1.7 mm 0 mps 751 mmHg 98%
    04:00 +22°C° 1.7 mm 0 mps 751 mmHg 98%
    05:00 +22°C° 1.7 mm 0 mps 751 mmHg 98%
    06:00 +23°C° 1.2 mm 0 mps 752 mmHg 98%
    07:00 +23°C° 1.2 mm 0 mps 752 mmHg 97%
    08:00 +24°C° 1.2 mm 0 mps 753 mmHg 97%
    09:00 +25°C° 0.7 mm 0 mps 752 mmHg 93%
    10:00 +29°C° 0.7 mm 1 mps 752 mmHg 89%
    11:00 +30°C° 0.7 mm 1 mps 752 mmHg 85%
    12:00 +30°C° 1.2 mm 1 mps 751 mmHg 85%
    13:00 +30°C° 1.2 mm 1 mps 751 mmHg 85%
    14:00 +31°C° 1.2 mm 1 mps 750 mmHg 85%
    15:00 +30°C° 1 mm 1 mps 750 mmHg 88%
    16:00 +29°C° 1 mm 1 mps 750 mmHg 91%
    17:00 +27°C° 1 mm 0 mps 750 mmHg 93%
    18:00 +26°C° 0.2 mm 0 mps 750 mmHg 94%
    19:00 +25°C° 0.2 mm 0 mps 751 mmHg 95%
    20:00 +26°C° 0.2 mm 1 mps 751 mmHg 96%
    21:00 +23°C° 0 mm 0 mps 752 mmHg 96%
    22:00 +23°C° 0 mm 0 mps 752 mmHg 97%
    23:00 +23°C° 0 mm 0 mps 752 mmHg 97%

    2 June, Tuesday

    Time Temperature Precipitation Wind Pressure Humidity
    00:00 +23°C° 0 mm 0 mps 752 mmHg 97%
    01:00 +22°C° 0 mm 0 mps 752 mmHg 98%
    02:00 +22°C° 0 mm 0 mps 751 mmHg 98%
    03:00 +22°C° 0 mm 0 mps 751 mmHg 98%
    04:00 +22°C° 0 mm 0 mps 751 mmHg 98%
    05:00 +22°C° 0 mm 0 mps 751 mmHg 98%
    06:00 +22°C° 0 mm 0 mps 752 mmHg 97%
    07:00 +23°C° 0 mm 0 mps 752 mmHg 96%
    08:00 +24°C° 0 mm 0 mps 753 mmHg 95%
    09:00 +26°C° 0 mm 0 mps 752 mmHg 84%
    10:00 +28°C° 0 mm 0 mps 752 mmHg 74%
    11:00 +30°C° 0 mm 0 mps 752 mmHg 63%
    12:00 +32°C° 0 mm 1 mps 751 mmHg 60%
    13:00 +33°C° 0 mm 1 mps 750 mmHg 57%
    14:00 +34°C° 0 mm 1 mps 750 mmHg 54%
    15:00 +33°C° 0 mm 1 mps 749 mmHg 58%
    16:00 +33°C° 0 mm 1 mps 749 mmHg 61%
    17:00 +32°C° 0 mm 1 mps 749 mmHg 64%
    18:00 +28°C° 0 mm 0 mps 749 mmHg 70%
    19:00 +26°C° 0 mm 0 mps 750 mmHg 77%
    20:00 +25°C° 0 mm 0 mps 750 mmHg 83%
    21:00 +24°C° 0.5 mm 0 mps 751 mmHg 87%
    22:00 +24°C° 0.5 mm 0 mps 751 mmHg 90%
    23:00 +23°C° 0.5 mm 0 mps 751 mmHg 93%

    3 June, Wednesday

    Time Temperature Precipitation Wind Pressure Humidity
    00:00 +23°C° 0.1 mm 0 mps 751 mmHg 94%
    01:00 +23°C° 0.1 mm 0 mps 751 mmHg 95%
    02:00 +23°C° 0.1 mm 0 mps 751 mmHg 96%
    03:00 +22°C° 0 mm 0 mps 750 mmHg 97%
    04:00 +22°C° 0 mm 0 mps 750 mmHg 97%
    05:00 +22°C° 0 mm 0 mps 750 mmHg 98%
    06:00 +23°C° 0 mm 0 mps 751 mmHg 96%
    07:00 +23°C° 0 mm 0 mps 752 mmHg 94%
    08:00 +24°C° 0 mm 0 mps 752 mmHg 92%
    09:00 +28°C° 0.1 mm 1 mps 752 mmHg 83%
    10:00 +30°C° 0.1 mm 1 mps 752 mmHg 75%
    11:00 +32°C° 0.1 mm 1 mps 752 mmHg 66%
    12:00 +31°C° 1.3 mm 1 mps 751 mmHg 74%
    13:00 +30°C° 1.3 mm 1 mps 750 mmHg 82%
    14:00 +29°C° 1.3 mm 1 mps 749 mmHg 90%
    15:00 +29°C° 1 mm 1 mps 749 mmHg 92%
    16:00 +28°C° 1 mm 1 mps 749 mmHg 94%
    17:00 +25°C° 1 mm 0 mps 749 mmHg 95%
    18:00 +25°C° 0.3 mm 0 mps 749 mmHg 96%
    19:00 +24°C° 0.3 mm 0 mps 750 mmHg 96%
    20:00 +23°C° 0.3 mm 0 mps 751 mmHg 96%
    21:00 +23°C° 0 mm 0 mps 751 mmHg 97%
    22:00 +23°C° 0 mm 0 mps 751 mmHg 97%
    23:00 +23°C° 0 mm 0 mps 752 mmHg 97%
    Show more